Tracking 26180 objects as of 24-Sep-2022
HD Live streaming from Space Station
objects crossing your sky now

LAUNCHERONE R/B

Track LAUNCHERONE R/B now!
10-day predictions


NORAD ID: 51101
Int'l Code: 2022-003H
Perigee: 418.3 km
Apogee: 475.2 km
Inclination: 45.0 °
Period: 93.4 minutes
Semi major axis: 6817 km
RCS: Unknown
Launch date: January 13, 2022
Source: United States (US)
Launch site: Pegasus launched from Western Range Air Space (WRAS)

Note: This is a ROCKET BODY
aabbcc
Your satellite tracking list
Your tracking list is empty




NASA's NSSDC Master Catalog

Two Line Element Set (TLE):
1 51101U 22003H   22267.19377348  .00016296  00000-0  36749-3 0  9992
2 51101  45.0221 225.2762 0041670 251.9857 107.6489 15.42202633 39000
Source of the keplerian elements: AFSPC